Location: Étouvelles
(49.5207°N, 3.5808°E)
Time: 20:30:29
(UTC+00:00)

Cosmos 1553 Rocket - Pass Details

Date: 03 February 2023
Orbit: 942 x 1007 km, 82.9° (Epoch: 21 March)

Event Time Altitude Azimuth Distance (km) Brightness Sun altitude
Rises 17:54:06 0° 164° (SSE) 3,598 6.9 -11.6°
Reaches altitude 10° 17:56:41 10° 157° (SSE) 2,661 6.2 -12.0°
Maximum altitude 18:02:20 42° 89° (E) 1,332 4.3 -12.9°
Drops below altitude 10° 18:08:05 10° 21° (NNE) 2,710 6.0 -13.8°
Sets 18:10:44 0° 15° (NNE) 3,670 6.8 -14.2°
